O3B MPOWER F4

Last updated on Wed Jun 24 2026 00:03:26 GMT+0000 (Coordinated Universal Time)

1 56367U 23059A 26173.57145522 -.00000023 00000+0 00000+0 0 9990 2 56367 0.0633 353.8264 0007667 103.7599 262.4992 5.00115538 58872
UTC large
Height (km)
Speed (km/s)
/
Latitude / Longitude
Inclination (degrees)
Orbital Period (minutes)
Azimuth
Elevation
Range (km)
Doppler Factor

Next 0 passes for location: London (51.5072 / 0.1276)

No passes found over London.
O3B MPOWER F4